Wind_Speed
23 23 22 22 21 21 21 20 18 18 18 17 16 16 16 16 16 16 15 15 15 15 15 16 18 20 22 24 26 28 30 31 32 32 31 31 31 30 30 29 28 28 28 28 28 28 28 28 29 29 29 30 30 31 31 32 33 34 36 38 38 39 40 42 45 44 40 38 38 37 36 37 36 33 30 29 29 30 31 32 33 32 32 33 36
24 24 24 23 23 22 22 21 21 20 20 19 18 17 17 16 17 16 16 16 15 16 16 18 20 22 24 26 28 30 31 32 32 31 30 28 27 25 25 24 24 24 24 25 25 26 26 27 27 28 28 29 29 30 30 30 31 32 33 36 37 38 40 42 44 46 43 40 39 39 38 37 38 36 33 31 30 30 32 32 33 33 32 33 34
27 26 25 24 24 24 23 23 22 22 21 20 18 17 17 17 17 17 16 16 16 17 18 19 21 24 25 27 29 30 31 30 28 26 24 22 21 21 21 22 23 23 24 24 25 25 26 26 27 27 28 28 29 29 30 30 31 31 32 33 34 35 37 40 43 46 46 43 41 40 39 39 38 37 35 34 32 31 31 32 32 33 33 34 34
26 26 25 25 24 24 24 24 23 22 21 20 18 17 17 17 17 17 17 17 17 18 19 21 23 25 26 28 29 29 28 25 22 20 19 19 20 21 22 22 23 23 24 25 25 26 26 27 28 28 28 29 29 30 30 31 31 31 32 32 33 34 35 37 39 42 45 45 43 42 41 41 39 37 36 37 34 31 32 32 33 33 32 33 34
22 22 23 23 24 24 25 25 24 22 21 19 18 17 17 18 17 17 17 17 18 19 20 22 24 25 26 27 26 24 21 18 17 18 19 20 21 21 22 23 23 24 25 26 27 27 28 28 29 30 30 30 30 31 31 32 32 32 32 33 33 34 34 35 37 39 42 44 43 42 42 42 41 38 36 37 35 34 34 33 32 33 32 32 33
20 20 21 21 23 24 25 24 23 22 20 19 17 17 17 17 17 17 17 18 18 20 21 22 23 24 24 23 21 18 16 16 17 19 20 20 21 22 23 24 25 25 26 27 28 29 29 30 31 31 32 32 32 33 33 33 33 33 33 34 34 35 34 35 36 37 39 41 42 42 42 42 43 41 37 36 36 35 34 32 31 32 32 31 31
20 20 20 19 21 23 23 23 22 20 19 18 17 17 17 17 17 17 17 18 19 20 21 21 21 21 19 17 15 15 16 17 18 19 20 21 21 22 23 24 24 25 26 27 28 29 30 30 31 32 32 33 34 35 35 35 35 35 35 35 36 36 36 36 36 37 38 39 39 40 41 42 42 42 39 36 35 35 34 32 32 33 32 31 29
20 19 19 18 20 21 22 21 20 19 18 17 17 17 16 16 16 16 17 17 18 19 20 19 18 16 14 13 13 14 16 17 18 19 19 20 20 21 21 22 23 24 25 26 27 27 28 29 30 31 32 32 34 35 36 37 37 37 36 37 37 37 38 37 37 38 39 39 39 38 39 40 40 41 40 37 34 34 35 35 34 33 32 30 30
20 19 18 18 20 20 20 19 18 17 17 16 16 15 15 15 15 15 16 17 17 18 17 15 13 11 11 12 13 15 16 17 18 19 19 19 20 20 22 22 23 24 25 26 27 28 29 29 30 31 31 32 32 33 34 36 37 38 38 37 37 38 38 39 39 40 40 40 40 39 38 38 37 38 40 38 33 32 35 38 37 34 32 31 31
18 18 18 19 20 20 19 18 17 16 15 15 14 14 14 15 14 14 15 15 16 15 13 11 9 9 11 13 14 15 16 17 18 19 19 20 21 22 23 24 24 25 26 27 28 29 30 31 31 32 32 32 32 32 33 33 34 36 37 37 37 38 38 38 39 41 42 42 41 40 40 39 35 34 38 39 35 33 35 37 35 33 33 33 32
16 17 18 19 20 19 18 16 15 14 14 14 13 13 13 13 13 13 13 13 12 10 8 7 8 10 11 13 14 15 16 17 17 18 19 20 21 22 23 24 25 26 27 27 28 29 30 31 32 33 33 33 33 32 32 31 31 32 33 34 35 37 38 39 39 39 41 43 42 41 41 41 37 33 35 38 36 34 35 35 32 31 34 34 31
16 17 19 19 19 18 16 15 14 13 13 12 12 12 11 11 11 11 11 10 8 6 5 7 9 10 12 13 14 14 15 16 17 18 19 20 21 22 23 24 25 26 27 28 28 28 29 30 31 32 33 33 33 32 31 30 29 30 30 31 32 34 36 38 39 40 40 41 42 42 42 41 40 36 34 35 36 35 37 38 34 31 34 34 31
16 19 20 19 18 17 14 13 12 11 11 10 10 10 9 9 9 9 8 6 4 4 5 7 9 10 11 12 13 14 15 16 17 18 19 20 21 22 23 24 25 25 26 27 27 28 29 30 30 30 31 32 32 32 31 30 29 28 28 28 30 32 33 34 36 39 41 42 42 42 42 42 42 39 35 35 36 36 37 39 36 32 31 33 32
18 20 20 18 17 15 13 12 10 10 9 8 8 7 7 7 7 6 5 3 2 4 6 7 8 9 10 11 12 13 14 16 17 18 19 20 21 22 23 23 24 25 26 27 28 29 29 30 31 31 32 33 33 33 33 32 31 29 27 27 29 30 30 31 33 35 38 41 43 42 41 41 41 40 36 35 36 36 36 38 36 32 30 31 32
18 19 19 17 15 14 13 11 9 8 7 6 5 4 4 5 5 5 3 2 3 4 5 7 8 8 9 11 12 13 14 15 17 17 18 19 20 21 22 23 24 25 26 27 28 30 31 32 33 34 35 37 38 38 37 36 34 32 30 30 30 29 29 30 31 33 34 38 41 41 40 39 39 38 36 35 36 35 35 37 37 33 30 32 32
19 18 17 16 16 14 12 10 9 7 6 5 3 2 3 4 5 5 3 2 3 4 5 6 7 8 9 10 11 13 14 15 16 17 18 19 20 21 22 23 24 25 27 28 29 30 32 34 36 37 39 41 41 41 40 38 36 35 33 33 32 31 31 31 32 33 33 33 35 37 37 36 36 35 34 34 36 35 33 35 37 33 31 32 31
18 18 17 17 16 14 12 10 9 8 6 5 3 2 4 5 5 4 3 1 2 3 4 5 6 8 9 10 11 12 14 15 16 17 18 19 19 20 22 23 24 26 27 29 30 32 34 36 37 39 41 43 43 43 42 39 38 36 35 34 34 33 32 31 31 32 33 32 32 32 31 32 33 33 32 33 34 32 31 34 36 32 31 32 29
17 17 16 15 14 12 11 10 9 8 6 4 3 4 6 6 5 4 2 1 1 2 4 5 6 8 9 10 11 12 13 15 16 16 17 18 19 20 22 23 24 25 27 29 30 32 34 36 38 41 42 43 43 43 42 41 39 38 37 36 36 35 34 32 31 31 32 32 33 30 27 27 29 29 29 31 31 28 27 32 36 34 31 31 30
16 15 13 12 12 11 11 10 8 7 6 5 6 8 8 7 5 3 2 1 1 2 3 5 6 8 9 10 11 12 13 14 15 16 17 18 19 20 21 22 23 25 26 28 30 32 34 36 39 41 42 42 42 42 41 41 40 39 39 38 38 38 38 36 34 32 30 30 30 28 26 26 26 27 26 27 29 29 26 29 34 34 32 31 31
15 14 13 13 13 12 10 9 8 8 8 9 10 10 9 7 4 3 2 2 2 2 4 5 7 8 9 10 11 12 13 13 14 16 17 18 20 20 21 22 23 25 26 27 29 32 34 36 38 40 40 40 40 40 40 39 38 38 38 39 39 40 38 35 32 29 27 26 25 22 21 21 20 21 23 24 27 28 27 28 32 33 33 33 32
15 15 15 15 14 12 10 10 10 11 12 13 12 10 8 6 4 3 2 2 2 3 4 6 7 8 9 10 11 12 12 13 14 16 17 19 19 20 21 22 23 25 25 27 30 32 34 36 37 38 39 39 39 39 38 37 35 35 35 37 37 37 35 32 28 25 24 22 20 18 16 15 13 10 12 18 25 27 26 27 30 33 34 32 29
15 15 15 15 14 13 12 13 14 14 14 13 11 9 7 6 4 4 2 1 2 4 5 6 7 8 9 10 10 11 12 13 14 16 18 18 19 20 21 22 23 24 25 27 30 31 33 35 36 36 36 37 38 38 38 36 34 33 32 33 34 34 32 31 29 26 24 21 19 18 17 15 13 10 6 4 13 22 26 27 28 29 28 26 25
15 15 15 14 14 14 14 15 15 15 14 12 10 8 7 6 4 3 1 2 3 4 5 6 7 8 9 9 10 11 12 14 15 17 18 18 19 20 21 22 23 24 25 28 30 31 32 32 33 33 35 37 37 37 38 37 35 33 31 31 32 32 32 33 32 30 28 26 22 21 22 21 18 16 12 8 3 5 13 19 23 24 22 22 25
15 15 15 15 15 15 16 17 16 14 12 10 9 8 6 5 3 2 2 3 4 5 5 6 7 8 8 9 10 11 13 14 16 17 18 18 19 20 21 22 23 24 26 28 29 29 30 30 31 32 34 35 36 36 37 37 36 35 34 33 33 34 35 36 36 34 33 30 28 27 27 26 25 23 20 15 12 8 2 5 13 18 20 20 21
16 17 17 16 16 17 17 17 15 13 12 11 9 8 6 4 2 2 2 3 4 4 5 6 6 7 8 9 10 11 13 14 15 16 17 18 19 19 20 21 22 23 25 27 27 27 28 29 30 31 33 34 34 35 36 36 37 36 36 36 36 36 36 38 38 37 36 34 32 31 31 30 29 27 24 20 15 11 8 5 4 8 12 14 16
18 18 18 18 18 18 18 17 14 13 12 10 8 6 4 3 2 2 2 3 3 4 4 5 5 7 7 8 10 11 12 13 14 15 16 17 18 18 19 21 21 23 24 26 26 26 27 28 28 30 31 32 33 34 35 35 36 36 36 37 37 37 37 39 39 39 39 37 35 34 34 33 31 28 23 20 17 15 12 8 4 3 4 7 10
19 19 19 19 20 19 17 16 14 13 11 9 7 5 4 3 2 2 2 2 2 3 3 4 5 6 7 7 8 10 11 12 14 14 15 16 17 18 19 20 21 22 24 25 25 25 26 27 27 28 30 31 32 33 33 34 35 36 37 37 38 37 38 39 39 39 39 38 36 36 34 33 32 30 26 22 20 20 20 19 14 9 5 2 1
20 20 20 20 20 18 16 15 14 12 10 8 6 4 3 2 2 1 1 1 1 2 3 4 5 5 6 7 8 9 10 11 12 13 14 15 16 17 18 20 20 22 24 24 24 25 25 25 26 27 28 29 30 31 32 33 35 36 37 38 38 38 38 37 38 38 38 37 36 36 36 35 34 33 31 28 25 23 22 22 21 18 15 12 7
22 21 22 21 20 18 16 14 13 11 9 7 5 4 4 3 2 1 0 0 1 2 3 4 4 5 6 6 7 8 9 10 11 12 13 14 16 17 18 19 20 22 24 23 23 24 25 25 25 26 28 29 30 31 32 33 34 35 36 37 38 38 38 38 37 37 37 37 37 37 38 38 37 36 34 31 29 28 25 23 21 20 19 16 12
23 23 23 21 19 17 16 14 12 10 8 7 6 5 4 3 3 2 1 1 2 3 3 4 4 4 5 6 7 8 9 9 10 12 13 14 16 17 18 19 21 22 23 22 22 24 25 25 26 27 28 29 30 31 32 34 34 35 35 36 37 38 38 38 38 37 37 37 37 38 39 39 39 38 36 34 32 30 28 26 23 21 19 17 17
24 24 22 20 18 17 15 13 11 10 8 8 7 6 5 4 3 2 1 2 2 3 3 3 3 4 5 6 7 7 8 9 11 12 13 14 15 16 17 19 21 21 21 20 22 24 25 25 26 27 28 28 29 30 32 33 34 34 35 36 36 37 38 38 38 38 37 37 36 37 38 39 39 39 38 37 35 33 31 29 27 25 23 21 20
25 24 22 20 18 16 15 13 11 10 9 8 7 6 5 4 3 3 2 2 2 3 3 3 3 4 4 5 6 6 7 9 10 11 13 14 14 15 17 19 20 20 19 20 22 24 24 25 26 27 27 28 29 30 30 32 33 34 34 35 36 36 37 38 37 37 37 37 37 37 37 37 38 39 38 38 37 36 34 32 31 29 28 26 25
25 23 21 19 17 16 14 13 12 11 10 9 7 6 5 4 3 3 2 2 2 3 3 3 4 4 4 5 6 6 7 9 10 10 12 13 14 15 17 17 17 18 18 20 22 23 24 24 25 26 27 28 28 29 30 30 31 32 33 34 35 35 35 35 35 35 36 37 37 37 37 37 37 37 37 37 38 38 37 36 34 32 30 30 30
24 22 21 19 18 16 15 14 13 12 10 9 8 6 5 4 3 3 2 2 3 3 3 4 4 4 5 5 6 6 7 8 9 9 11 12 13 14 15 15 15 16 18 20 21 22 22 24 24 25 26 27 27 28 29 30 30 30 31 32 33 33 33 33 34 33 34 35 36 36 37 37 36 36 36 36 37 38 38 38 37 36 34 33 32
25 23 22 20 18 17 16 15 14 12 11 9 8 7 5 4 3 2 2 2 3 3 4 4 4 4 5 5 5 6 6 7 8 9 10 10 12 13 13 13 14 16 18 19 20 21 21 22 23 24 25 26 26 27 28 29 29 29 30 30 31 31 31 32 33 33 33 33 34 34 36 36 36 36 36 35 35 36 36 36 36 36 35 34 33
25 23 22 20 19 18 17 15 14 13 11 10 8 7 5 4 3 2 1 2 2 3 3 4 4 4 4 5 5 6 6 7 7 8 9 10 11 12 12 13 14 15 16 17 18 19 20 21 21 22 23 24 25 26 26 27 28 28 28 29 30 30 30 31 31 32 32 32 32 32 32 34 34 35 35 35 34 34 34 34 34 33 33 33 32
25 24 22 21 19 18 17 16 14 13 11 9 8 7 5 4 2 1 1 1 2 2 3 3 4 4 4 5 5 6 6 7 7 8 8 9 10 10 11 12 13 14 15 15 16 17 18 19 20 21 21 22 23 24 25 25 26 27 27 28 28 28 29 30 30 30 30 30 31 31 31 31 31 32 33 33 33 33 33 32 32 31 31 30 30
26 24 23 21 20 18 17 15 14 12 11 10 8 7 5 4 3 2 1 1 1 2 3 3 3 4 4 5 5 6 6 7 7 8 8 9 9 10 11 12 12 13 13 14 15 15 16 17 18 19 20 21 21 22 23 24 25 25 25 26 27 27 27 27 28 28 28 29 29 29 29 30 30 30 30 30 30 31 32 31 31 30 29 29 29
26 25 23 22 20 19 17 16 14 13 11 10 8 7 6 4 4 3 2 3 3 3 4 4 4 4 5 5 6 6 7 7 8 8 9 10 10 11 11 12 12 12 13 13 14 14 15 16 17 17 18 19 20 21 21 22 23 24 24 25 25 26 26 26 26 26 27 27 28 28 28 28 28 28 28 28 28 29 29 29 29 29 29 29 29
26 25 23 22 21 19 18 17 15 13 11 10 9 7 6 5 4 4 4 5 5 6 6 6 6 6 7 7 8 8 9 9 9 10 11 11 12 12 12 12 13 13 13 13 14 14 15 15 16 16 17 18 19 20 20 21 21 22 23 24 25 25 25 25 25 25 25 25 26 26 26 26 26 26 26 27 27 27 27 27 27 27 27 27 27
26 25 23 22 21 19 18 16 15 13 12 10 9 8 7 6 6 6 6 7 7 8 8 8 9 9 9 9 10 10 11 11 12 12 13 13 13 14 14 14 14 14 14 14 14 14 15 15 16 16 16 17 18 18 19 20 20 21 22 23 24 24 25 25 25 24 24 24 24 24 24 24 25 25 25 25 25 25 25 25 25 25 24 24 24
27 26 25 23 21 19 18 16 14 13 11 10 10 9 8 8 8 8 8 9 9 10 10 11 11 11 11 12 12 12 13 13 14 14 15 15 15 15 16 16 16 16 16 16 16 16 16 16 16 16 16 17 17 18 18 19 19 20 21 22 23 23 24 24 24 24 23 23 23 22 22 22 22 23 23 23 22 22 22 23 23 23 23 23 23
28 26 25 23 22 20 18 16 14 12 12 11 10 10 9 9 10 11 11 11 11 12 12 13 14 14 14 13 14 15 15 15 15 16 17 17 17 18 18 18 18 18 18 18 18 18 17 17 17 17 17 17 17 17 18 18 19 19 20 21 22 22 23 23 23 23 23 23 22 21 21 21 20 20 20 20 21 20 20 20 20 20 20 21 21
28 26 25 24 22 20 18 15 14 13 12 11 11 10 11 11 12 12 13 13 14 14 15 15 16 17 17 16 16 16 17 17 17 18 18 18 19 19 20 20 20 20 20 20 20 20 19 19 19 18 18 18 18 18 18 18 18 19 19 20 20 21 22 22 22 22 22 22 22 21 20 19 19 18 18 18 18 18 18 18 18 17 17 18 18
28 27 26 24 22 19 17 15 14 13 13 12 12 12 12 13 13 14 15 15 16 16 16 17 18 19 19 20 20 20 19 19 20 20 20 20 20 21 21 22 22 22 22 22 22 22 22 21 21 21 20 19 19 19 19 19 18 19 19 19 20 20 21 21 21 21 21 21 21 21 20 19 18 17 17 16 16 16 16 16 16 16 16 15 15
29 27 26 24 21 19 17 16 15 14 14 13 13 14 14 14 15 15 16 16 17 18 18 19 20 20 21 21 22 22 22 22 22 22 22 22 22 22 23 23 24 24 23 23 24 24 23 23 23 23 22 22 21 21 21 21 20 20 20 19 19 19 20 20 20 20 20 20 20 20 20 19 18 17 16 15 15 14 14 14 14 14 14 14 13
29 27 26 23 21 19 18 17 16 15 15 15 15 15 16 16 16 17 17 18 18 19 20 20 21 22 22 23 23 24 24 24 24 25 25 25 25 25 25 26 26 26 26 26 26 26 25 25 24 24 24 24 23 23 23 23 23 22 22 21 20 20 19 19 19 20 20 20 19 19 19 19 18 17 16 15 14 14 13 13 13 12 13 13 12
30 28 26 24 22 20 19 18 17 16 16 17 17 17 17 17 18 18 19 20 20 21 21 22 22 23 23 24 25 25 26 26 26 26 27 27 27 28 28 28 28 27 27 27 28 28 27 27 26 26 25 25 25 25 25 25 25 24 24 24 23 21 20 20 20 19 19 19 19 19 19 18 18 17 16 15 14 14 13 13 13 12 12 12 11
30 28 27 25 23 21 19 19 18 18 18 18 19 19 19 19 19 20 20 21 22 23 23 24 24 24 25 25 26 26 27 27 28 28 29 29 30 31 32 32 32 31 30 29 29 29 29 29 29 28 28 27 27 26 26 26 26 26 26 26 25 24 23 22 21 21 20 20 20 19 19 18 18 17 16 15 14 14 13 13 13 13 12 12 11
30 29 27 25 23 22 20 20 20 19 20 20 20 20 20 20 20 21 21 22 23 24 25 26 26 26 27 27 27 27 28 29 29 30 30 29 28 28 27 25 25 27 29 30 30 29 29 30 30 30 30 30 29 28 28 28 27 27 27 27 27 26 25 25 24 23 22 21 21 20 20 19 19 18 17 15 14 14 13 13 13 13 13 13 13
30 28 27 25 23 22 21 21 21 21 22 22 21 22 22 22 22 22 23 24 24 25 26 26 27 27 27 27 28 29 28 25 24 24 23 21 21 21 21 20 20 22 26 30 32 32 31 31 31 31 31 31 30 30 29 29 29 28 29 29 29 28 27 27 26 26 25 24 23 22 22 21 20 19 19 18 16 15 14 14 13 13 13 13 14
Wind_Direction
237 237 236 237 242 248 252 254 256 255 254 258 266 273 278 283 288 291 292 292 294 295 298 302 306 310 313 314 315 316 317 317 316 316 315 314 314 314 314 314 314 314 315 314 314 314 313 312 310 309 307 305 302 299 296 293 290 287 285 283 283 282 282 281 281 282 281 280 280 279 277 276 275 277 280 280 278 277 276 276 278 280 283 278 260
240 239 238 240 244 249 252 253 254 254 252 254 262 269 275 281 285 287 288 289 292 295 298 303 308 311 312 314 315 316 317 317 317 317 317 318 319 320 322 324 325 326 326 326 325 324 322 321 319 318 316 313 311 308 305 302 298 294 291 287 285 283 282 282 281 281 281 278 278 278 277 275 274 274 275 275 275 276 275 274 276 278 281 283 271
243 241 241 243 247 251 252 252 252 252 250 252 259 266 272 279 282 284 286 288 291 295 299 304 307 310 312 313 315 317 317 319 320 321 324 326 330 332 334 336 335 335 333 332 331 329 327 325 323 322 320 318 316 313 310 308 305 302 299 295 292 289 285 283 282 281 281 279 277 277 276 275 274 273 271 270 270 273 274 274 275 275 277 281 279
246 245 245 247 249 251 250 249 250 250 250 252 258 265 271 276 280 283 286 288 292 296 300 304 307 310 312 315 317 319 320 323 326 330 335 339 341 341 341 339 337 336 335 333 332 330 328 327 325 324 322 320 318 316 313 311 309 306 304 301 298 296 292 288 285 283 282 281 278 276 275 274 274 273 270 268 268 268 270 273 274 274 275 278 281
246 246 246 248 250 250 249 248 249 249 249 252 257 264 270 275 280 283 286 290 293 297 300 305 308 311 315 317 320 322 325 330 337 342 345 345 344 341 340 338 337 336 335 334 332 331 329 328 327 325 323 322 319 317 315 313 312 309 307 305 302 299 296 293 290 287 284 284 281 278 275 274 273 273 272 270 268 265 266 269 271 273 272 272 276
247 245 246 247 247 246 245 245 245 247 248 252 257 264 270 276 281 284 288 291 294 298 303 307 311 315 318 321 324 327 334 340 345 347 346 344 342 340 339 339 339 338 337 336 334 333 331 330 328 326 325 323 321 318 316 314 313 312 309 307 305 302 300 297 293 290 287 286 284 281 277 274 272 272 272 271 268 265 265 266 268 270 271 270 272
249 248 248 247 244 241 240 240 242 244 247 252 259 265 272 277 282 285 289 293 297 301 306 310 314 319 322 326 331 337 342 345 347 346 343 341 341 342 341 341 341 340 339 338 336 335 333 332 331 329 327 326 323 321 318 316 314 313 311 308 307 305 303 301 298 294 291 288 285 283 280 276 272 270 271 271 268 266 264 265 266 268 269 269 268
249 250 250 247 241 237 236 237 240 243 247 254 260 267 274 279 283 287 291 295 300 305 309 313 318 322 328 334 339 343 345 345 345 343 341 342 342 343 343 344 343 342 340 339 338 336 335 334 332 331 330 329 327 324 322 319 316 315 313 310 308 306 304 302 300 298 295 292 289 286 281 277 273 269 269 270 270 267 264 265 267 266 266 265 264
253 254 251 245 239 236 236 237 240 244 249 256 264 271 276 280 284 289 293 299 303 307 311 316 322 329 336 341 342 343 344 342 341 341 342 344 344 345 347 347 346 344 342 341 340 338 337 336 335 334 333 332 330 328 325 322 320 317 315 313 310 308 306 304 302 299 297 295 293 290 285 279 275 270 267 266 266 262 260 261 262 261 262 263 262
259 255 249 241 237 235 236 238 243 248 255 262 269 274 277 280 285 291 296 301 304 308 313 319 329 339 343 344 344 343 343 342 342 343 344 346 348 350 351 349 347 347 346 345 344 342 341 339 338 336 335 334 332 330 328 325 322 320 317 316 314 312 310 308 306 303 300 298 296 293 289 283 277 271 267 265 262 257 256 258 260 260 260 260 260
262 251 242 237 235 235 237 242 247 254 260 266 270 274 277 281 287 293 298 302 305 308 317 330 341 346 345 345 345 343 344 344 345 347 349 351 353 354 353 351 350 350 349 349 348 346 344 342 340 338 336 335 333 331 329 326 323 320 317 316 315 314 313 311 309 306 303 300 298 295 291 286 280 272 266 264 261 253 251 254 258 261 261 259 259
257 244 237 234 233 235 238 243 250 256 261 266 269 273 277 283 289 295 298 300 303 311 331 344 348 347 345 345 344 344 346 348 349 351 354 356 357 357 354 354 354 353 352 351 350 349 348 346 344 342 340 337 335 332 330 327 324 321 317 315 314 313 312 310 309 307 304 301 298 295 293 289 283 276 267 265 262 253 247 249 253 256 258 259 259
249 238 234 233 233 234 237 241 247 253 257 262 267 271 278 285 291 295 296 294 303 332 349 351 348 346 345 344 344 346 348 351 353 356 358 360 360 358 357 357 357 355 354 353 352 351 351 350 348 347 344 342 339 336 333 331 328 324 319 315 313 311 308 306 305 304 303 302 300 297 295 291 285 280 272 264 262 257 248 245 247 252 255 256 257
239 233 232 232 234 236 237 238 238 243 248 253 260 267 277 289 294 293 288 289 328 350 352 349 346 344 344 344 346 349 351 354 357 360 1 2 1 358 358 358 357 356 355 355 354 354 354 353 352 351 350 348 346 343 341 338 335 332 327 322 318 315 311 306 302 299 299 299 299 298 297 292 286 283 279 268 261 258 250 243 242 247 252 254 253
226 226 226 228 231 233 231 229 226 228 232 236 244 258 280 297 295 285 278 300 337 347 347 346 344 342 344 347 350 352 354 357 359 1 2 2 1 358 358 359 358 357 358 358 357 357 357 357 357 356 356 356 354 352 348 345 342 340 337 333 329 326 322 318 314 309 304 300 299 298 298 295 286 282 281 274 263 257 252 243 238 241 250 253 251
220 222 223 225 228 224 217 212 210 207 206 209 215 241 277 284 277 264 263 298 328 342 344 340 340 343 347 351 353 354 356 358 360 1 1 1 360 358 358 360 360 0 0 360 360 0 1 1 1 1 1 0 359 356 353 350 348 346 343 340 337 334 332 331 327 322 316 309 304 298 295 294 289 282 279 275 265 258 251 241 235 240 250 251 249
220 222 222 223 220 211 199 194 193 191 192 197 206 238 250 247 238 229 233 283 325 339 336 333 339 346 350 353 354 355 357 358 360 1 360 360 359 357 359 2 2 3 3 2 2 4 5 5 4 5 5 3 0 358 355 353 351 349 346 344 342 339 337 335 332 329 324 320 314 307 297 290 286 281 276 271 265 258 249 237 232 237 246 249 249
220 221 219 215 209 199 193 192 190 188 189 195 206 215 212 202 197 199 209 271 324 326 323 331 344 349 352 354 354 356 357 357 359 359 359 359 359 359 1 4 4 5 5 6 6 7 7 7 7 7 6 4 2 359 356 356 354 352 350 348 346 344 343 341 337 332 328 323 320 318 312 300 292 284 275 265 258 254 245 234 229 233 243 250 251
216 213 209 208 210 210 207 202 193 184 181 186 190 188 184 183 185 191 197 226 277 298 319 339 347 349 351 353 353 356 357 357 358 358 359 1 1 1 3 4 5 7 7 8 9 9 9 9 10 9 7 6 3 0 359 359 357 356 355 353 351 351 350 348 342 335 331 329 326 324 321 314 303 292 280 264 251 247 243 235 230 231 240 248 249
210 207 208 216 223 220 211 196 181 172 172 174 175 175 176 181 186 189 193 216 259 304 332 344 346 346 348 351 354 356 356 356 358 1 3 3 2 2 3 4 7 9 9 10 11 11 11 11 10 9 8 7 5 3 3 3 0 360 1 360 359 358 356 352 345 340 338 337 337 334 324 314 303 290 279 266 253 246 242 235 231 232 236 240 241
215 216 218 220 216 205 192 178 168 165 166 168 170 174 180 184 186 190 203 232 289 329 340 343 343 345 348 352 354 354 354 357 1 5 7 5 3 3 4 6 9 10 10 12 14 13 13 13 11 9 9 8 8 8 8 7 4 4 7 8 8 5 1 357 353 351 349 344 345 350 341 324 314 300 276 260 252 247 243 238 234 237 239 236 233
220 218 214 207 196 184 175 168 163 163 166 168 172 178 182 185 190 197 215 277 325 334 337 338 341 345 348 351 352 351 354 360 5 10 10 7 5 5 6 9 12 11 11 15 16 15 14 14 11 9 10 11 11 12 13 11 9 10 11 14 14 10 7 7 6 5 4 359 359 7 7 354 341 337 338 272 243 240 239 238 237 238 237 233 231
215 210 202 192 182 172 166 162 161 165 168 171 176 181 184 189 194 203 250 316 326 329 334 338 342 345 348 349 350 354 359 4 9 13 12 8 7 9 10 12 13 12 14 17 18 16 16 14 11 10 12 14 14 15 17 15 15 14 14 16 17 15 15 17 15 15 16 15 16 19 20 19 11 360 357 5 351 233 218 219 223 224 222 222 227
207 201 192 184 175 168 164 162 163 166 171 178 182 183 185 189 195 229 290 314 323 329 336 340 343 346 348 352 357 1 6 10 12 14 12 9 10 12 13 15 15 15 18 21 20 17 16 15 11 11 15 16 16 18 19 18 19 19 17 18 20 20 21 22 20 20 21 21 23 28 27 25 25 20 12 8 2 353 332 205 210 215 214 214 220
200 192 184 177 170 166 164 163 165 170 178 183 184 182 185 194 215 266 294 314 324 332 339 341 346 350 355 1 6 8 11 13 14 14 13 12 12 14 16 18 17 17 21 24 21 17 17 16 13 13 16 17 17 20 21 19 21 22 21 22 24 24 26 27 23 23 25 24 26 32 32 29 29 28 25 23 17 359 338 316 251 224 214 208 212
193 184 177 170 166 165 165 165 169 177 182 184 182 182 190 208 242 273 297 317 327 336 341 345 353 1 6 10 12 12 14 15 15 15 14 14 15 15 17 19 18 19 23 26 22 19 20 19 15 15 18 18 18 22 23 21 22 24 24 26 27 27 30 32 28 26 28 28 28 32 34 33 32 31 29 28 31 33 31 22 350 277 242 221 219
187 178 172 167 165 165 166 169 175 179 182 181 180 186 203 226 253 272 299 321 329 341 349 358 9 13 14 17 16 15 16 17 17 16 15 15 16 17 19 21 20 20 25 26 23 20 22 22 18 17 19 20 19 22 24 23 23 25 27 28 29 28 30 34 34 31 31 32 32 33 35 35 34 32 31 32 35 37 38 40 43 42 35 22 236
179 173 169 167 166 166 168 174 178 178 178 180 183 196 212 223 237 257 295 321 342 1 10 18 22 20 19 21 19 18 20 20 19 17 16 18 19 19 21 23 22 24 27 26 23 22 24 24 22 21 21 21 21 23 26 26 25 26 27 29 31 31 30 33 36 36 35 35 35 36 36 37 37 35 33 34 39 41 38 38 42 44 42 40 47
174 170 168 166 167 168 171 176 177 175 177 183 189 197 199 191 185 172 131 42 33 34 32 32 30 23 22 22 20 20 22 23 21 18 18 21 22 21 23 25 24 26 28 25 22 23 26 25 24 23 24 23 22 22 25 28 28 28 28 29 31 32 31 30 33 37 36 35 37 39 38 38 40 40 38 36 38 42 43 42 43 44 43 43 49
172 170 168 167 169 171 172 174 175 176 181 185 186 185 177 163 153 140 104 65 53 46 42 41 34 23 20 23 22 22 22 23 23 20 20 23 24 23 25 27 27 28 28 24 22 25 26 25 25 25 25 24 23 23 24 27 28 29 29 29 30 32 33 31 31 35 37 36 37 40 41 41 41 41 41 41 41 41 43 43 45 47 48 49 49
172 170 168 168 171 172 172 173 176 179 181 180 176 170 161 152 144 132 97 63 56 52 50 47 38 29 26 25 24 23 22 24 24 22 22 25 26 25 27 29 30 29 26 22 24 27 27 25 26 26 26 25 25 24 25 26 27 27 29 31 30 31 32 31 30 32 36 36 37 39 41 42 42 42 43 43 44 44 44 44 44 45 46 49 49
173 171 169 170 171 172 174 176 178 179 177 173 169 163 155 149 140 125 106 79 64 57 55 52 42 36 33 28 26 26 26 27 26 23 23 26 25 26 29 30 30 28 24 23 26 28 27 25 26 26 26 26 26 26 25 26 27 25 26 30 31 30 32 32 29 30 33 34 35 39 41 41 42 43 43 44 45 45 45 46 46 46 46 47 47
174 171 169 170 171 174 176 177 176 176 172 168 167 164 159 153 138 121 107 87 70 57 53 51 42 35 31 27 26 28 28 29 27 23 24 25 24 27 30 30 28 25 24 25 28 28 26 26 26 26 27 26 26 26 26 26 27 26 25 27 30 30 31 33 31 30 32 33 32 36 40 41 41 42 42 43 45 46 45 46 47 48 49 49 49
173 171 170 171 172 176 178 177 175 174 172 170 171 170 167 157 136 115 99 79 64 51 46 44 40 35 30 23 21 26 29 29 26 24 24 24 23 27 30 28 24 24 24 25 27 26 25 25 25 25 26 26 25 26 27 26 27 27 26 27 29 28 29 32 32 31 33 34 32 32 36 38 41 42 42 41 43 45 46 46 46 46 46 48 48
173 172 172 173 174 177 179 178 176 175 175 176 177 176 170 157 139 123 103 77 60 49 44 41 38 35 32 24 19 20 23 24 22 21 21 19 21 25 25 21 20 22 22 23 25 23 22 23 23 23 24 25 24 25 26 25 26 27 26 26 28 27 26 29 30 30 32 35 34 33 34 35 36 39 41 42 42 43 44 45 46 46 46 46 47
174 174 174 176 178 179 179 179 179 179 181 182 181 180 175 163 151 133 94 67 53 44 40 34 32 31 29 23 16 12 12 14 16 15 13 13 16 19 17 15 18 19 19 19 20 19 19 20 21 20 21 22 22 23 24 24 24 25 25 25 26 26 25 26 28 27 29 33 35 35 36 36 36 35 37 40 41 43 44 44 45 46 47 48 49
175 176 177 180 181 181 182 182 182 182 185 184 183 185 184 176 173 165 95 45 29 23 20 18 20 21 17 14 11 6 1 360 2 4 2 3 7 7 6 9 12 13 12 13 14 13 14 16 16 17 17 18 19 20 21 22 22 23 23 23 24 25 24 25 26 25 25 28 31 33 35 38 39 38 37 37 38 40 42 44 45 46 47 48 50
177 179 180 182 183 184 184 184 183 184 187 187 188 191 192 191 197 212 246 290 318 336 342 349 356 358 358 360 359 355 351 350 349 350 348 349 353 354 357 1 4 3 4 5 5 5 8 9 11 12 12 13 14 15 16 17 18 19 19 20 22 23 23 24 25 24 24 25 27 28 30 33 37 39 39 39 39 39 39 39 41 43 45 47 50
181 182 183 183 185 186 186 186 186 188 190 190 192 197 201 206 216 233 259 275 285 294 303 314 324 328 335 339 339 339 341 339 335 333 334 337 340 343 346 349 350 351 353 354 355 357 359 0 2 4 6 6 8 10 11 12 13 13 14 15 16 18 19 20 22 23 23 23 24 25 26 28 31 34 35 37 40 41 40 40 39 39 40 42 44
184 185 186 186 187 188 190 190 190 191 194 196 198 203 211 221 231 245 260 270 278 284 288 295 301 307 313 318 321 323 325 325 325 327 329 330 332 333 334 336 337 339 341 343 344 348 350 351 353 355 357 359 1 3 5 6 7 8 9 10 11 12 13 14 17 18 19 20 22 22 22 23 25 28 30 32 34 37 38 40 41 42 41 41 41
187 187 189 190 191 192 194 195 195 197 200 203 208 213 221 230 241 253 261 269 275 279 283 287 291 294 298 302 306 310 312 315 318 320 320 321 323 323 324 325 326 327 330 331 334 337 340 342 345 346 348 351 353 355 357 359 0 2 4 4 6 8 8 9 11 12 14 16 17 19 20 20 21 23 25 26 28 31 32 34 36 39 41 42 43
189 190 192 194 195 196 199 201 203 205 209 214 220 226 232 239 249 257 262 268 274 278 282 286 288 290 293 296 298 301 303 306 309 311 312 314 316 317 318 319 319 320 321 322 324 327 330 332 335 337 339 341 343 346 348 350 352 355 357 359 1 2 3 4 6 7 8 10 11 11 14 16 18 19 20 21 22 25 27 28 30 32 34 36 37
193 194 196 198 199 200 203 207 210 215 220 225 230 236 242 247 253 259 263 268 273 277 281 285 287 289 292 293 295 298 300 302 304 306 307 309 310 311 312 313 313 314 314 315 316 318 321 323 325 327 330 332 335 337 339 341 343 346 348 350 354 356 356 358 360 1 3 5 5 4 6 9 12 14 16 17 17 18 20 22 24 26 28 30 31
196 198 200 203 203 204 207 211 217 223 230 235 241 246 251 254 258 262 265 269 272 276 280 283 286 289 291 292 293 295 297 299 301 302 304 306 307 308 309 309 309 310 310 310 311 312 313 314 317 318 321 323 325 327 329 331 333 335 338 340 343 347 350 352 353 354 356 359 0 360 360 1 3 5 7 10 12 12 14 15 17 19 21 23 25
200 202 204 207 208 210 212 215 222 230 237 242 248 253 256 260 263 266 269 272 275 278 281 283 285 288 290 293 295 296 297 298 300 301 303 304 304 305 305 305 305 305 305 305 306 306 307 308 310 311 312 314 315 317 320 322 323 325 328 331 333 337 340 344 346 346 348 351 354 355 355 355 356 356 357 0 4 6 7 7 8 11 13 14 16
204 206 209 211 212 215 218 222 228 236 242 248 253 257 261 264 267 270 273 276 278 281 284 286 287 288 291 293 296 297 299 300 301 301 301 302 302 302 302 302 302 302 302 301 301 302 302 303 304 305 306 307 309 310 311 312 314 316 318 321 325 328 332 336 339 340 340 342 345 347 350 351 350 349 349 351 353 355 357 359 360 1 3 5 7
207 210 213 215 217 219 224 229 234 241 247 252 256 261 265 269 271 273 276 278 280 282 285 287 288 291 293 295 296 298 299 300 301 301 301 300 299 298 298 297 298 298 299 298 298 299 299 299 299 300 300 301 302 304 305 305 307 309 310 312 316 319 322 326 330 333 334 334 335 337 341 344 345 344 343 343 344 345 346 348 349 350 351 353 354
211 213 216 218 220 223 228 234 240 245 251 255 260 264 267 271 275 278 280 282 284 285 287 287 288 290 292 294 295 297 298 299 300 301 300 300 299 298 297 296 295 294 293 294 295 296 296 297 297 297 297 297 297 298 299 299 300 302 303 305 307 311 313 316 320 324 326 327 327 328 330 333 336 337 338 337 336 336 336 337 338 339 339 339 340
214 216 218 221 224 227 232 238 244 249 253 258 262 266 268 272 276 279 282 285 287 288 289 290 290 291 292 293 295 296 297 299 299 299 298 297 296 295 294 293 292 291 290 289 290 291 293 294 295 295 296 296 296 296 296 296 295 296 297 298 300 302 305 307 309 312 316 318 319 319 319 321 324 327 329 330 330 329 328 328 328 328 328 328 327
217 219 222 225 228 231 237 243 249 253 257 260 264 267 271 273 276 278 281 284 285 287 289 290 291 292 293 294 296 297 298 298 297 295 294 293 291 290 290 289 289 291 292 291 290 289 289 290 292 293 293 294 294 295 295 295 295 294 294 294 295 295 296 298 301 303 305 308 310 311 311 311 313 315 317 319 320 322 322 322 320 320 320 319 318
220 222 226 229 233 236 242 247 252 256 260 263 266 270 273 276 279 281 283 284 285 287 288 290 292 293 295 296 298 298 296 294 291 290 289 287 285 285 286 284 282 286 291 293 293 294 293 292 291 292 293 293 293 293 292 293 293 294 293 292 292 292 292 292 293 295 297 299 302 303 304 305 305 305 307 308 310 311 312 314 314 313 312 312 311
Height
3138 3139 3139 3140 3141 3141 3142 3142 3143 3143 3144 3144 3144 3145 3145 3145 3145 3145 3145 3145 3144 3143 3143 3142 3141 3140 3139 3137 3136 3135 3133 3131 3129 3127 3125 3123 3121 3119 3117 3115 3113 3111 3109 3107 3106 3104 3102 3100 3098 3096 3095 3093 3091 3089 3088 3086 3085 3083 3081 3079 3078 3076 3074 3071 3067 3066 3069 3069 3067 3067 3068 3066 3066 3066 3066 3065 3064 3063 3061 3061 3060 3060 3059 3059 3059
3136 3137 3137 3138 3139 3140 3140 3141 3141 3142 3142 3142 3143 3143 3143 3144 3144 3144 3143 3143 3143 3142 3141 3140 3139 3138 3137 3135 3134 3132 3130 3128 3126 3124 3122 3120 3118 3116 3114 3112 3111 3109 3107 3105 3103 3101 3099 3097 3095 3093 3091 3089 3087 3085 3084 3082 3080 3078 3077 3074 3073 3072 3069 3066 3063 3060 3061 3063 3063 3062 3062 3061 3060 3061 3060 3059 3059 3058 3056 3056 3056 3056 3055 3054 3054
3134 3135 3136 3137 3137 3138 3139 3139 3140 3140 3140 3141 3141 3142 3142 3142 3142 3142 3142 3141 3141 3140 3140 3139 3138 3137 3135 3134 3132 3130 3128 3126 3123 3122 3120 3118 3116 3114 3112 3111 3109 3107 3105 3103 3101 3099 3097 3095 3093 3091 3089 3086 3084 3082 3080 3078 3076 3074 3072 3070 3068 3066 3065 3062 3059 3056 3054 3055 3057 3056 3056 3055 3054 3055 3055 3054 3053 3053 3052 3051 3051 3051 3050 3050 3049
3132 3133 3134 3135 3135 3136 3137 3138 3138 3139 3139 3139 3140 3140 3140 3140 3140 3140 3140 3140 3140 3139 3138 3138 3136 3135 3134 3132 3130 3128 3125 3124 3122 3120 3118 3116 3114 3113 3111 3109 3107 3105 3103 3101 3099 3097 3095 3093 3090 3088 3086 3084 3081 3079 3076 3074 3072 3070 3068 3066 3063 3061 3060 3057 3055 3052 3048 3048 3050 3050 3049 3049 3049 3049 3049 3048 3048 3048 3047 3046 3046 3046 3046 3045 3044
3130 3131 3132 3133 3134 3135 3135 3136 3137 3137 3138 3138 3138 3138 3139 3139 3139 3139 3139 3138 3138 3138 3137 3136 3135 3133 3132 3130 3128 3126 3124 3122 3120 3118 3117 3115 3113 3111 3109 3108 3106 3104 3102 3099 3097 3095 3092 3090 3088 3085 3083 3080 3078 3075 3073 3070 3068 3066 3063 3061 3059 3057 3055 3053 3050 3048 3044 3042 3042 3043 3043 3043 3043 3044 3044 3042 3042 3043 3042 3042 3041 3041 3041 3041 3040
3129 3129 3130 3131 3132 3132 3133 3134 3135 3135 3136 3136 3136 3137 3137 3137 3137 3137 3137 3137 3137 3136 3135 3134 3133 3132 3130 3128 3126 3124 3123 3121 3119 3117 3116 3114 3112 3110 3108 3106 3104 3102 3099 3097 3095 3092 3090 3087 3085 3082 3079 3077 3074 3071 3069 3066 3064 3062 3059 3056 3054 3052 3050 3048 3046 3043 3041 3038 3036 3036 3037 3037 3036 3037 3038 3037 3036 3037 3037 3037 3037 3036 3036 3036 3036
3127 3127 3128 3128 3129 3130 3131 3132 3132 3133 3134 3134 3135 3135 3135 3135 3135 3135 3135 3135 3135 3134 3133 3132 3131 3130 3128 3126 3125 3123 3121 3120 3118 3116 3115 3113 3111 3109 3107 3105 3102 3100 3098 3095 3093 3090 3088 3085 3082 3079 3076 3073 3070 3067 3064 3062 3059 3057 3055 3052 3049 3047 3045 3043 3040 3038 3035 3033 3032 3031 3030 3030 3030 3031 3032 3032 3030 3031 3031 3030 3031 3031 3031 3032 3032
3125 3125 3126 3126 3127 3128 3129 3130 3131 3131 3132 3133 3133 3133 3133 3133 3134 3134 3134 3133 3133 3132 3131 3130 3129 3128 3126 3125 3124 3122 3121 3119 3118 3116 3114 3112 3111 3109 3106 3104 3102 3099 3097 3094 3092 3089 3086 3084 3080 3078 3074 3071 3067 3064 3060 3057 3054 3052 3050 3047 3044 3042 3039 3037 3035 3032 3030 3027 3027 3026 3025 3024 3024 3025 3026 3026 3025 3026 3026 3025 3025 3026 3026 3026 3027
3124 3124 3124 3125 3126 3127 3128 3129 3129 3130 3130 3131 3131 3131 3132 3132 3132 3132 3132 3131 3131 3130 3130 3129 3127 3126 3125 3124 3123 3121 3120 3118 3117 3115 3113 3112 3110 3107 3105 3103 3100 3098 3096 3093 3090 3087 3084 3082 3079 3076 3073 3069 3066 3062 3058 3053 3049 3046 3044 3042 3039 3037 3034 3031 3029 3026 3024 3022 3021 3020 3019 3018 3018 3019 3019 3019 3020 3021 3021 3020 3019 3019 3020 3020 3021
3122 3122 3123 3124 3125 3126 3127 3127 3128 3129 3129 3129 3130 3130 3130 3130 3130 3130 3130 3130 3129 3129 3128 3127 3126 3125 3124 3123 3122 3120 3119 3117 3116 3114 3112 3110 3108 3106 3104 3102 3099 3097 3094 3092 3089 3086 3082 3079 3076 3074 3071 3067 3064 3060 3056 3052 3048 3043 3039 3036 3034 3031 3029 3027 3024 3021 3018 3016 3015 3014 3012 3011 3013 3013 3012 3012 3013 3014 3014 3014 3014 3014 3014 3014 3015
3119 3120 3121 3122 3123 3124 3125 3126 3127 3127 3128 3128 3128 3128 3128 3128 3128 3128 3128 3128 3128 3127 3127 3125 3125 3124 3123 3122 3120 3119 3118 3116 3115 3113 3111 3109 3107 3105 3103 3100 3098 3096 3093 3090 3087 3084 3081 3078 3074 3071 3067 3064 3061 3058 3054 3051 3047 3043 3039 3035 3031 3027 3024 3021 3019 3017 3013 3010 3008 3007 3005 3004 3006 3007 3006 3006 3007 3007 3008 3008 3009 3010 3009 3009 3010
3117 3118 3120 3121 3122 3123 3124 3125 3125 3126 3126 3126 3127 3127 3127 3127 3127 3127 3127 3127 3127 3126 3125 3124 3123 3123 3122 3121 3119 3118 3117 3115 3114 3112 3110 3108 3106 3104 3102 3099 3097 3095 3092 3089 3086 3083 3080 3076 3073 3069 3065 3061 3058 3055 3052 3048 3045 3041 3038 3034 3030 3026 3022 3018 3014 3011 3009 3006 3003 3001 3000 2998 2998 2999 3000 3000 3000 3000 3001 3002 3003 3005 3005 3005 3006
3116 3117 3118 3120 3120 3121 3122 3123 3124 3124 3125 3125 3125 3126 3126 3126 3126 3126 3126 3126 3126 3125 3124 3123 3123 3122 3121 3120 3119 3117 3116 3115 3113 3111 3109 3107 3105 3103 3101 3099 3096 3094 3091 3088 3085 3082 3078 3075 3072 3068 3064 3060 3056 3052 3048 3045 3042 3039 3035 3032 3028 3024 3020 3016 3012 3008 3004 3001 2999 2997 2995 2992 2991 2992 2994 2994 2993 2993 2995 2996 2998 2999 3000 3000 3002
3114 3116 3117 3118 3119 3121 3121 3122 3122 3122 3123 3124 3124 3124 3124 3124 3125 3125 3126 3126 3125 3124 3123 3123 3122 3121 3120 3119 3118 3117 3115 3114 3112 3110 3109 3107 3105 3103 3100 3098 3095 3093 3090 3086 3083 3080 3077 3073 3070 3066 3062 3058 3053 3049 3045 3041 3038 3035 3032 3029 3025 3021 3017 3014 3010 3006 3002 2997 2994 2992 2991 2988 2985 2985 2987 2987 2987 2987 2988 2990 2992 2994 2995 2996 2997
3113 3115 3116 3117 3118 3119 3120 3120 3121 3121 3122 3122 3123 3123 3123 3123 3124 3125 3125 3125 3125 3124 3123 3122 3121 3120 3119 3118 3117 3116 3114 3113 3111 3110 3108 3106 3104 3102 3099 3097 3094 3091 3088 3085 3082 3079 3075 3072 3068 3063 3059 3054 3050 3045 3041 3037 3034 3030 3027 3024 3021 3017 3013 3009 3005 3002 2998 2994 2990 2987 2986 2983 2981 2980 2981 2981 2980 2981 2983 2984 2987 2989 2990 2991 2992
3112 3114 3115 3116 3116 3117 3118 3118 3119 3120 3120 3121 3121 3121 3122 3123 3123 3124 3125 3125 3124 3123 3122 3122 3121 3120 3118 3117 3116 3115 3114 3112 3111 3109 3107 3105 3103 3101 3099 3096 3093 3090 3087 3084 3081 3078 3074 3070 3066 3061 3056 3052 3048 3043 3039 3035 3031 3027 3024 3020 3017 3013 3010 3006 3002 2998 2994 2991 2986 2983 2980 2979 2976 2975 2976 2975 2974 2975 2978 2979 2982 2985 2986 2986 2987
3111 3113 3113 3114 3115 3115 3116 3117 3118 3119 3119 3119 3120 3120 3121 3122 3123 3123 3123 3123 3123 3122 3122 3121 3120 3119 3118 3117 3116 3115 3113 3112 3110 3109 3107 3105 3103 3101 3098 3095 3092 3089 3086 3083 3080 3077 3073 3069 3064 3060 3055 3051 3046 3042 3038 3034 3029 3025 3021 3018 3014 3010 3007 3004 3000 2996 2991 2987 2983 2980 2976 2974 2972 2971 2970 2970 2969 2970 2972 2974 2977 2980 2982 2982 2983
3111 3112 3113 3113 3114 3115 3115 3116 3116 3117 3117 3118 3118 3119 3120 3121 3122 3122 3122 3122 3122 3121 3121 3120 3119 3118 3117 3116 3115 3114 3113 3111 3110 3108 3107 3105 3102 3100 3097 3094 3092 3089 3086 3083 3079 3076 3072 3068 3064 3059 3055 3051 3046 3042 3037 3032 3028 3024 3019 3015 3012 3008 3004 3000 2997 2994 2990 2986 2981 2977 2973 2969 2967 2965 2964 2964 2965 2966 2968 2970 2972 2975 2977 2978 2980
3110 3111 3112 3113 3114 3114 3114 3115 3115 3115 3115 3116 3118 3119 3120 3121 3121 3121 3121 3121 3121 3121 3120 3119 3118 3117 3117 3116 3115 3114 3112 3111 3110 3108 3106 3104 3101 3099 3096 3094 3091 3089 3086 3082 3079 3075 3072 3068 3064 3060 3056 3052 3047 3043 3037 3032 3027 3023 3019 3015 3011 3006 3001 2997 2994 2992 2988 2984 2979 2975 2970 2966 2963 2961 2959 2960 2961 2962 2964 2966 2968 2971 2973 2975 2976
3109 3110 3111 3112 3112 3112 3112 3113 3113 3113 3114 3116 3117 3119 3120 3120 3120 3120 3120 3120 3120 3120 3119 3118 3118 3117 3116 3115 3114 3113 3112 3111 3109 3108 3105 3103 3101 3098 3096 3093 3091 3088 3085 3082 3079 3075 3072 3068 3064 3060 3056 3053 3048 3043 3038 3033 3029 3024 3020 3015 3010 3005 3001 2998 2994 2991 2987 2983 2978 2973 2969 2966 2962 2958 2956 2957 2958 2959 2960 2962 2964 2967 2969 2970 2971
3107 3108 3109 3110 3111 3111 3111 3111 3112 3113 3114 3116 3117 3118 3119 3119 3119 3119 3120 3120 3119 3119 3118 3118 3117 3117 3116 3115 3114 3113 3112 3111 3109 3107 3105 3102 3100 3098 3095 3093 3090 3087 3085 3082 3078 3075 3071 3068 3064 3061 3057 3053 3049 3044 3039 3035 3030 3026 3021 3017 3012 3008 3004 3000 2996 2991 2987 2983 2978 2974 2969 2966 2963 2959 2956 2955 2955 2956 2957 2959 2961 2963 2964 2966 2968
3106 3107 3108 3109 3109 3110 3110 3111 3112 3113 3115 3116 3117 3118 3118 3118 3119 3119 3119 3119 3118 3118 3118 3117 3117 3116 3115 3114 3114 3113 3111 3110 3108 3106 3104 3102 3100 3097 3095 3092 3090 3087 3084 3081 3078 3075 3071 3068 3065 3062 3058 3054 3050 3045 3040 3036 3032 3028 3024 3020 3016 3011 3006 3002 2997 2992 2988 2983 2978 2974 2969 2966 2963 2960 2958 2956 2954 2954 2955 2956 2958 2959 2961 2963 2965
3105 3106 3107 3108 3108 3109 3109 3111 3112 3114 3115 3116 3117 3117 3118 3118 3118 3118 3118 3118 3118 3117 3117 3117 3116 3115 3115 3114 3113 3112 3110 3108 3107 3105 3103 3102 3099 3097 3094 3092 3090 3087 3084 3081 3078 3075 3072 3069 3066 3063 3059 3055 3050 3046 3041 3038 3034 3030 3026 3022 3017 3012 3007 3003 2999 2993 2988 2983 2978 2974 2970 2966 2963 2961 2958 2956 2955 2954 2954 2954 2955 2956 2957 2959 2961
3104 3105 3106 3106 3107 3108 3109 3111 3112 3114 3115 3116 3117 3117 3117 3117 3117 3117 3117 3117 3117 3117 3116 3116 3115 3115 3114 3113 3112 3110 3109 3107 3106 3104 3103 3101 3099 3097 3094 3092 3089 3087 3083 3080 3078 3075 3072 3070 3067 3063 3059 3056 3052 3047 3043 3040 3036 3032 3028 3023 3018 3013 3008 3004 3000 2995 2990 2985 2979 2974 2971 2967 2964 2961 2959 2956 2956 2955 2954 2953 2953 2954 2954 2956 2957
3103 3104 3105 3105 3106 3108 3109 3111 3112 3114 3115 3116 3116 3116 3116 3117 3117 3117 3117 3117 3117 3116 3116 3116 3115 3114 3113 3112 3111 3109 3108 3107 3106 3104 3103 3101 3099 3097 3095 3092 3090 3087 3084 3081 3079 3076 3073 3070 3068 3064 3060 3057 3054 3049 3045 3042 3038 3034 3030 3025 3020 3015 3010 3006 3002 2997 2991 2986 2982 2977 2973 2970 2967 2964 2962 2960 2958 2956 2955 2954 2954 2954 2954 2954 2955
3101 3103 3104 3105 3106 3108 3109 3111 3112 3114 3114 3115 3115 3116 3116 3116 3116 3116 3117 3116 3116 3116 3116 3115 3114 3113 3112 3111 3110 3109 3108 3107 3106 3104 3103 3101 3099 3097 3095 3092 3090 3087 3084 3082 3080 3077 3074 3071 3068 3065 3062 3058 3055 3051 3047 3044 3040 3036 3032 3027 3022 3018 3013 3008 3004 2999 2994 2989 2985 2981 2977 2974 2971 2968 2966 2963 2960 2958 2957 2956 2955 2955 2955 2954 2954
3101 3102 3103 3104 3106 3107 3109 3111 3112 3113 3114 3114 3114 3115 3115 3116 3116 3116 3116 3116 3116 3116 3115 3114 3114 3113 3112 3111 3110 3109 3108 3107 3106 3105 3103 3102 3100 3097 3095 3093 3090 3088 3085 3082 3080 3078 3075 3072 3070 3067 3063 3060 3057 3053 3049 3046 3042 3038 3034 3030 3025 3021 3016 3011 3007 3003 2998 2994 2990 2985 2982 2978 2975 2972 2969 2966 2963 2961 2960 2958 2957 2956 2955 2954 2954
3100 3101 3103 3104 3106 3107 3109 3110 3111 3112 3113 3113 3114 3114 3115 3115 3116 3116 3116 3116 3115 3115 3114 3114 3113 3112 3112 3111 3110 3109 3108 3107 3106 3105 3104 3102 3100 3098 3095 3093 3091 3088 3085 3083 3081 3079 3076 3074 3071 3068 3065 3062 3059 3055 3052 3048 3044 3040 3036 3032 3028 3024 3020 3015 3011 3007 3003 2998 2994 2990 2986 2982 2978 2975 2973 2970 2967 2964 2963 2961 2958 2957 2956 2955 2955
3099 3101 3102 3104 3106 3107 3109 3110 3111 3111 3112 3113 3114 3114 3115 3115 3115 3115 3115 3115 3115 3114 3114 3113 3112 3112 3111 3111 3110 3109 3108 3107 3106 3105 3104 3102 3100 3098 3096 3093 3091 3088 3086 3084 3083 3080 3077 3075 3072 3069 3066 3063 3060 3057 3053 3049 3046 3042 3038 3034 3031 3027 3023 3019 3014 3010 3007 3003 2998 2994 2990 2986 2983 2980 2977 2974 2971 2969 2966 2964 2962 2960 2959 2958 2957
3098 3100 3102 3103 3105 3107 3108 3109 3110 3111 3112 3113 3113 3114 3114 3115 3115 3115 3115 3115 3114 3114 3113 3113 3112 3112 3111 3110 3110 3109 3108 3107 3106 3105 3104 3102 3100 3098 3096 3094 3091 3089 3087 3086 3084 3081 3078 3076 3073 3070 3067 3064 3061 3058 3054 3051 3048 3044 3040 3037 3033 3029 3026 3022 3018 3014 3010 3007 3003 2999 2995 2991 2988 2985 2982 2979 2976 2973 2970 2968 2966 2965 2963 2962 2961
3098 3099 3101 3103 3105 3106 3107 3108 3109 3110 3111 3112 3113 3114 3114 3114 3114 3114 3114 3114 3114 3113 3113 3112 3112 3111 3111 3110 3110 3109 3108 3107 3106 3105 3103 3101 3100 3098 3096 3094 3092 3090 3089 3087 3085 3081 3079 3077 3074 3071 3069 3066 3062 3059 3056 3052 3049 3046 3043 3039 3036 3032 3029 3025 3022 3018 3014 3011 3008 3003 2999 2996 2992 2990 2987 2984 2981 2978 2975 2973 2971 2969 2967 2965 2965
3097 3099 3101 3102 3104 3105 3107 3108 3109 3110 3111 3112 3112 3113 3113 3114 3114 3114 3114 3114 3113 3113 3112 3112 3112 3111 3110 3110 3109 3109 3108 3107 3105 3104 3103 3101 3100 3098 3096 3094 3092 3091 3090 3088 3085 3082 3080 3078 3075 3073 3070 3067 3064 3061 3058 3054 3051 3048 3045 3042 3038 3035 3032 3028 3025 3022 3018 3015 3012 3008 3004 3000 2997 2994 2992 2989 2986 2983 2980 2978 2975 2973 2971 2970 2969
3097 3099 3100 3102 3104 3105 3106 3108 3109 3110 3111 3111 3112 3112 3113 3113 3113 3113 3113 3113 3113 3112 3112 3112 3111 3110 3110 3110 3109 3108 3108 3106 3105 3104 3103 3101 3100 3098 3096 3095 3093 3092 3091 3088 3085 3083 3081 3079 3077 3074 3071 3069 3066 3063 3060 3057 3053 3050 3047 3044 3041 3038 3035 3032 3030 3026 3022 3018 3015 3012 3008 3005 3002 2999 2996 2993 2990 2987 2985 2982 2980 2978 2977 2975 2973
3096 3098 3100 3101 3103 3105 3106 3107 3108 3109 3110 3111 3111 3112 3112 3113 3113 3113 3113 3112 3112 3112 3111 3111 3110 3110 3110 3109 3109 3108 3107 3106 3105 3104 3103 3102 3100 3098 3097 3096 3094 3093 3091 3088 3086 3084 3082 3080 3078 3075 3073 3070 3068 3065 3062 3059 3056 3053 3050 3047 3044 3041 3039 3036 3033 3030 3026 3022 3019 3015 3012 3009 3006 3003 3000 2997 2994 2992 2989 2987 2985 2983 2981 2979 2978
3095 3097 3099 3101 3103 3104 3105 3107 3108 3109 3110 3110 3111 3112 3112 3112 3112 3112 3112 3112 3111 3111 3111 3110 3110 3110 3109 3109 3108 3108 3107 3106 3105 3104 3103 3102 3100 3099 3097 3096 3094 3093 3091 3089 3087 3085 3083 3081 3079 3077 3074 3072 3070 3067 3064 3061 3058 3055 3053 3050 3047 3044 3041 3038 3035 3033 3030 3026 3023 3020 3016 3013 3010 3007 3005 3002 2999 2996 2994 2991 2990 2988 2986 2984 2982
3095 3097 3099 3100 3102 3103 3105 3106 3107 3108 3109 3110 3110 3111 3111 3111 3111 3111 3111 3111 3111 3110 3110 3110 3110 3109 3109 3108 3108 3107 3106 3105 3105 3104 3103 3101 3100 3099 3097 3096 3094 3093 3091 3089 3088 3086 3084 3082 3080 3078 3076 3073 3071 3068 3066 3063 3060 3058 3055 3052 3049 3046 3044 3040 3038 3035 3032 3029 3027 3024 3021 3017 3014 3011 3009 3006 3004 3001 2999 2997 2995 2993 2991 2990 2988
3094 3096 3098 3100 3101 3103 3104 3105 3106 3108 3108 3109 3110 3110 3110 3110 3111 3110 3110 3110 3110 3110 3110 3110 3109 3109 3108 3108 3107 3106 3106 3105 3104 3103 3102 3101 3100 3098 3097 3096 3094 3093 3091 3090 3088 3086 3085 3083 3081 3079 3077 3074 3072 3070 3067 3065 3062 3060 3057 3055 3052 3049 3046 3043 3040 3038 3035 3032 3030 3027 3025 3022 3019 3016 3013 3011 3008 3006 3004 3002 3000 2998 2997 2995 2993
3094 3096 3097 3099 3101 3102 3104 3105 3106 3107 3108 3108 3109 3109 3109 3109 3110 3110 3110 3110 3110 3110 3109 3109 3109 3108 3108 3107 3106 3106 3105 3104 3103 3102 3102 3100 3099 3098 3097 3095 3094 3093 3091 3090 3088 3087 3085 3083 3081 3079 3077 3075 3073 3071 3069 3066 3064 3062 3059 3057 3054 3051 3049 3046 3043 3040 3038 3035 3032 3030 3027 3025 3023 3020 3018 3016 3013 3010 3008 3006 3004 3003 3001 2999 2998
3093 3095 3097 3098 3100 3102 3103 3104 3105 3106 3107 3108 3108 3108 3108 3109 3109 3109 3109 3109 3109 3109 3109 3108 3108 3107 3107 3106 3106 3105 3104 3103 3103 3102 3101 3100 3098 3097 3096 3095 3093 3092 3091 3089 3088 3087 3085 3083 3081 3080 3078 3076 3074 3072 3070 3067 3065 3063 3061 3058 3056 3053 3051 3048 3045 3043 3040 3038 3035 3032 3030 3028 3025 3023 3021 3019 3017 3015 3013 3011 3008 3006 3004 3002 3001
3092 3094 3096 3098 3099 3101 3102 3103 3105 3105 3106 3107 3107 3107 3107 3108 3108 3108 3108 3108 3108 3108 3108 3108 3107 3106 3106 3105 3104 3104 3103 3102 3102 3101 3100 3098 3097 3096 3095 3094 3093 3092 3090 3089 3087 3086 3084 3083 3081 3080 3078 3076 3074 3072 3070 3068 3066 3064 3062 3059 3057 3055 3052 3050 3047 3045 3042 3040 3037 3035 3033 3030 3028 3026 3024 3022 3020 3018 3016 3015 3013 3011 3009 3007 3005
3091 3094 3095 3097 3098 3100 3101 3103 3103 3104 3105 3105 3106 3106 3106 3106 3107 3107 3107 3107 3107 3107 3107 3106 3106 3105 3105 3104 3103 3103 3102 3101 3100 3099 3098 3097 3096 3095 3094 3093 3092 3091 3089 3088 3087 3085 3084 3082 3081 3079 3077 3076 3074 3072 3070 3068 3066 3064 3062 3060 3058 3056 3053 3051 3049 3046 3044 3042 3039 3037 3035 3033 3030 3028 3026 3024 3022 3020 3019 3017 3016 3014 3013 3012 3010
3090 3093 3094 3096 3098 3099 3101 3101 3102 3103 3104 3104 3104 3105 3105 3105 3105 3106 3106 3106 3106 3106 3106 3105 3105 3104 3104 3103 3102 3101 3101 3100 3099 3098 3097 3096 3095 3094 3093 3092 3090 3089 3088 3087 3086 3084 3083 3081 3080 3078 3077 3075 3073 3072 3070 3068 3066 3064 3062 3060 3058 3056 3054 3052 3050 3048 3045 3043 3041 3039 3037 3035 3032 3030 3028 3026 3025 3023 3021 3019 3018 3016 3015 3014 3012
3089 3091 3093 3095 3097 3098 3099 3100 3101 3102 3102 3103 3103 3103 3104 3104 3104 3104 3105 3105 3105 3104 3104 3104 3103 3102 3102 3102 3101 3100 3099 3098 3097 3096 3095 3094 3093 3092 3091 3090 3089 3087 3086 3085 3084 3083 3081 3080 3079 3077 3076 3074 3073 3071 3069 3067 3066 3064 3062 3060 3058 3057 3055 3053 3051 3049 3046 3044 3042 3040 3038 3036 3034 3032 3030 3028 3027 3025 3023 3022 3020 3019 3017 3016 3014
3088 3091 3092 3094 3096 3097 3098 3098 3099 3100 3100 3101 3101 3102 3102 3103 3103 3103 3103 3103 3103 3102 3102 3102 3101 3100 3100 3100 3099 3098 3097 3096 3095 3095 3093 3092 3091 3090 3089 3088 3086 3085 3084 3083 3082 3081 3079 3078 3077 3076 3074 3073 3071 3070 3068 3067 3065 3063 3062 3060 3058 3056 3055 3053 3051 3049 3047 3045 3043 3041 3039 3037 3035 3034 3032 3030 3028 3027 3025 3024 3022 3021 3019 3018 3017
3087 3089 3091 3093 3094 3095 3096 3097 3098 3098 3099 3099 3100 3100 3101 3101 3101 3101 3101 3101 3101 3100 3100 3100 3099 3099 3098 3097 3096 3096 3095 3094 3093 3092 3091 3090 3089 3088 3086 3085 3084 3083 3082 3080 3079 3078 3077 3076 3075 3074 3072 3071 3070 3068 3067 3065 3064 3062 3061 3059 3058 3056 3054 3053 3051 3049 3047 3046 3044 3042 3040 3038 3036 3034 3033 3031 3029 3028 3026 3025 3024 3022 3021 3020 3018
3086 3088 3090 3091 3092 3093 3094 3095 3096 3096 3097 3098 3098 3098 3099 3099 3099 3099 3099 3099 3098 3098 3098 3097 3097 3096 3096 3095 3094 3093 3092 3091 3090 3089 3088 3087 3086 3085 3084 3082 3081 3080 3079 3078 3076 3075 3074 3073 3072 3071 3070 3069 3067 3066 3065 3063 3062 3061 3059 3058 3056 3055 3053 3052 3050 3049 3047 3045 3044 3042 3040 3038 3036 3035 3033 3032 3030 3028 3027 3026 3024 3023 3022 3021 3019
3085 3086 3088 3089 3090 3092 3092 3093 3094 3095 3095 3096 3096 3096 3097 3097 3097 3097 3097 3096 3096 3096 3096 3095 3095 3094 3093 3092 3091 3090 3090 3089 3088 3087 3085 3084 3083 3082 3081 3079 3078 3077 3076 3074 3073 3072 3071 3070 3069 3068 3067 3066 3065 3064 3062 3061 3060 3058 3057 3056 3055 3053 3052 3051 3049 3048 3046 3045 3043 3041 3040 3038 3036 3035 3033 3031 3030 3029 3027 3026 3025 3023 3022 3021 3020
3083 3085 3086 3087 3089 3090 3090 3091 3092 3093 3093 3093 3094 3094 3094 3095 3094 3094 3094 3094 3094 3094 3093 3093 3092 3091 3091 3090 3089 3088 3087 3086 3085 3083 3082 3081 3080 3079 3077 3076 3075 3074 3073 3071 3070 3069 3067 3067 3066 3065 3064 3063 3062 3061 3060 3058 3057 3056 3054 3053 3052 3051 3050 3049 3048 3046 3045 3043 3042 3041 3039 3038 3036 3034 3033 3031 3030 3028 3027 3026 3024 3023 3022 3021 3020
3081 3083 3084 3086 3087 3088 3088 3089 3090 3090 3091 3091 3092 3092 3092 3092 3092 3092 3092 3091 3091 3091 3090 3090 3089 3089 3088 3087 3086 3085 3084 3083 3082 3080 3079 3078 3076 3075 3073 3072 3070 3069 3068 3067 3066 3065 3064 3063 3062 3061 3060 3059 3058 3057 3056 3055 3054 3053 3052 3051 3050 3049 3048 3046 3045 3044 3043 3042 3040 3039 3038 3036 3035 3033 3032 3030 3029 3027 3026 3025 3024 3022 3021 3020 3019
3079 3081 3082 3084 3085 3086 3087 3087 3088 3088 3089 3089 3089 3089 3089 3089 3089 3089 3089 3088 3088 3088 3087 3087 3086 3085 3085 3084 3083 3082 3081 3079 3078 3076 3075 3074 3072 3071 3070 3068 3066 3064 3063 3062 3062 3061 3060 3059 3058 3057 3056 3055 3055 3054 3053 3052 3051 3050 3049 3048 3047 3046 3045 3044 3043 3042 3040 3039 3038 3037 3036 3035 3033 3032 3031 3029 3028 3026 3025 3024 3022 3021 3020 3019 3018
3077 3079 3080 3082 3083 3084 3084 3085 3085 3086 3086 3086 3086 3086 3086 3086 3086 3086 3086 3085 3085 3085 3084 3084 3083 3082 3081 3080 3079 3078 3077 3075 3074 3073 3072 3071 3069 3068 3067 3066 3064 3062 3060 3058 3057 3056 3056 3055 3054 3053 3052 3052 3051 3050 3049 3048 3047 3046 3045 3044 3043 3042 3042 3041 3040 3039 3037 3036 3036 3035 3033 3032 3031 3030 3029 3028 3026 3025 3024 3022 3021 3020 3019 3017 3016